Location: Baia Mare
(47.6567°N, 23.5850°E)
Time: 06:25:00
(UTC+03:00)

ISS - Pass Details

Date: 21 March 2020
Orbit: 417 x 423 km, 51.6° (Epoch: 29 March)

Event Time Altitude Azimuth Distance (km) Brightness Sun altitude
Rises 19:58:51 0° 235° (SW) 2,349 0.6 -13.8°
Reaches altitude 10° 20:00:56 10° 232° (SW) 1,490 -0.5 -14.2°
Maximum altitude 20:04:15 62° 151° (SSE) 474 -3.8 -14.7°
Enters shadow 20:05:41 30° 80° (E) 779 -2.9 -14.9°
